Tracking 19575 objects as of 19-Feb-2019
HD Live streaming from Space Station
objects crossing your sky now

COSMOS 539

Track COSMOS 539 now!
10-day predictions
COSMOS 539 is classified as:


NORAD ID: 6319
Int'l Code: 1972-102A
Perigee: 1,348.6 km
Apogee: 1,385.8 km
Inclination: 74.0 °
Period: 112.9 minutes
Semi major axis: 7738 km
RCS: 2.7132 m2 (large)
Launch date: December 21, 1972
Source: Commonwealth of Independent States (former USSR) (CIS)
Launch site: PLESETSK MISSILE AND SPACE COMPLEX (PKMTR)
aabbcc
Your satellite tracking list
Your tracking list is empty




NASA's NSSDC Master Catalog

Two Line Element Set (TLE):
1  6319U 72102A   19048.95565501 -.00000018 +00000-0 -29310-5 0  9990
2  6319 074.0170 039.2202 0024029 349.1128 076.9279 12.75387777148965
Source of the keplerian elements: AFSPC